Location: Dorset Village
(33.9881°N, 118.3276°W)
Time: 15:51:11
(UTC+00:00)

Daily predictions for brighter satellites

Satellite Brightness Start Highest point End
(mag) Time Altitude Azimuth Time Altitude Azimuth Time Altitude Azimuth
ATLAS 3B R/B 3.9 12:14:29 10° S 12:20:17 37° ESE 12:26:16 10° NE
Cosmos 1151 Rocket 4.3 12:23:48 35° NE 12:24:39 39° E 12:28:45 10° SSE
H-2A R/B 4.2 12:28:04 35° E 12:28:28 36° E 12:31:58 10° SSE
Cosmos 1634 Rocket 4.0 12:24:45 24° N 12:28:45 77° E 12:34:56 10° S
SL-4 R/B 4.0 12:33:52 19° SSE 12:34:41 21° SE 12:37:23 10° ENE
BREEZE-M DEB 3.8 12:37:56 39° E 12:37:56 39° E 12:41:21 10° NE
Okean 3 Rocket 3.6 12:36:56 10° S 12:41:27 80° E 12:46:00 10° N
DELTA 2 R/B (1) 3.9 12:41:22 49° NNW 12:41:31 49° N 12:46:53 10° ENE
Cosmos 1354 Rocket 3.9 12:37:03 10° SSW 12:42:18 88° WNW 12:47:38 10° NNE
Cosmos 2369 Rocket 4.2 12:49:41 13° N 12:49:41 13° N 12:50:25 10° N
Meteor 2-13 Rocket 4.4 12:39:49 10° SSW 12:45:46 55° W 12:51:44 10° N
MOS 1-B Rocket 4.2 12:39:57 10° SSE 12:46:19 71° ENE 12:52:00 10° N
Cosmos 1328 Rocket 4.1 12:47:57 19° N 12:50:57 55° E 12:55:11 10° SSE
CZ-2C R/B 3.2 12:53:16 10° SSE 12:58:38 60° ENE 13:03:56 10° N
CZ-4B R/B 4.2 12:55:30 10° NNE 12:59:58 75° E 13:04:23 10° S
OAO 2 Rocket 4.4 12:58:55 19° SW 13:02:11 42° SSE 13:07:01 10° E
COSMO-SKYMED 1 3.1 12:58:21 10° SSE 13:02:36 58° ENE 13:06:52 10° N
SL-27 R/B 4.3 13:05:01 11° N 13:07:57 30° ENE 13:11:03 10° SE
Cosmos 836 Rocket 4.5 13:07:16 33° NW 13:09:29 59° WSW 13:14:34 10° S
Cosmos 1408 Rocket 3.4 13:06:51 10° S 13:11:08 88° E 13:15:27 10° N
ADEOS 4.1 13:06:51 10° NNE 13:12:00 60° ESE 13:17:08 10° S
Landsat 5 4.1 13:12:45 10° SSE 13:17:12 63° ENE 13:21:37 10° N
DNEPR-1 R/B 4.1 13:14:24 25° NW 13:17:35 79° WSW 13:23:52 10° SSE
FALCON 9 R/B 4.1 13:04:13 24° W 13:21:54 84° SSW 13:29:00 10° ESE
Cosmos 1743 Rocket 4.2 13:17:45 10° S 13:22:02 57° E 13:26:19 10° NNE
SKYMED 3 4.5 13:22:23 10° S 13:26:42 71° W 13:31:02 10° NNW
Cosmos 1777 Rocket 3.9 13:21:58 10° SSW 13:27:06 62° WNW 13:32:17 10° N
SJ 16-02 1.3 13:23:56 10° SSW 13:28:15 61° WNW 13:32:35 10° N
Cosmos 1812 4.3 13:33:40 18° WSW 13:33:40 18° WSW 13:35:28 10° SW
Cosmos 773 Rocket 4.0 13:29:03 10° NNW 13:34:17 83° ENE 13:39:25 10° SSE
CZ-2C R/B 3.4 13:31:03 10° NNE 13:36:03 69° ESE 13:41:18 10° S
Cosmos 1515 Rocket 3.4 13:32:14 10° N 13:36:35 80° W 13:40:54 10° S
BREEZE-M DEB (TANK) 3.9 13:28:25 14° NW 13:41:39 61° SW 13:46:10 10° SSE
Meteor 2-15 Rocket 4.4 13:36:04 10° N 13:42:10 86° W 13:48:13 10° S
NOAA 11 4.1 13:37:05 10° N 13:42:35 77° WNW 13:48:03 10° SSW
Cosmos 1340 Rocket 2.7 13:38:48 10° SSW 13:42:42 65° W 13:46:41 10° N
CZ-4B R/B 2.8 13:41:34 10° NNE 13:45:09 76° ESE 13:48:49 10° S
ATLAS 5 CENTAUR R/B 2.5 13:44:49 20° WNW 13:45:54 22° NW 13:49:06 10° N
Cosmos 1500 Rocket 3.6 13:44:50 10° SSW 13:49:13 60° W 13:53:39 10° N
Envisat 3.9 13:46:20 10° NNW 13:50:27 26° WNW 13:54:34 10° SW
SKYMED 2 4.2 13:46:43 10° SSW 13:50:41 35° W 13:54:40 10° NNW
Sich 1 3.7 13:47:54 10° S 13:52:06 58° E 13:56:18 10° NNE
Nadezhda 4 Rocket 4.2 13:49:57 10° SSW 13:55:53 49° W 14:01:54 10° N
DMSP B5D2-2 4.2 13:51:25 10° SSE 13:56:38 83° ENE 14:01:51 10° N
Cosmos 1805 Rocket 3.5 13:57:16 10° S 14:01:39 79° W 14:06:01 10° N
H-2A R/B 2.9 13:57:33 10° SSE 14:01:41 54° ENE 14:05:56 10° N
COSMOS 2487 2.8 14:01:28 10° N 14:04:47 62° ENE 14:08:05 10° SSE
CZ-4C R/B 3.4 14:02:40 10° SSW 14:05:33 33° W 14:08:25 10° NNW
Lacrosse 5 2.4 14:00:58 10° SSW 14:05:58 66° SE 14:11:02 10° NE
BREEZE-M DEB (TANK) 4.3 13:55:09 10° WSW 14:07:13 34° NW 14:11:04 10° NNE
Meteor 1-31 Rocket 4.4 14:07:09 10° NW 14:09:19 15° WNW 14:11:30 10° WSW
ATLAS 3B R/B 3.1 14:04:58 10° WSW 14:10:52 36° NW 14:17:01 10° NNE
Meteor 1-27 Rocket 4.0 14:05:35 10° NNW 14:11:06 52° W 14:16:42 10° SSW
Alouette 2 Rocket 3.2 14:08:21 10° NNW 14:11:53 81° W 14:15:55 10° S
Cosmos 1428 Rocket 4.4 14:06:08 10° S 14:12:16 76° W 14:18:24 10° N
SL-4 R/B 2.4 14:10:50 10° WSW 14:14:00 32° NW 14:17:19 10° NNE
AQUARIUS 4.4 14:09:30 10° NNE 14:14:00 77° ESE 14:18:29 10° S
Cosmos 1939 Rocket 2.7 14:10:56 10° N 14:14:47 63° WNW 14:18:34 10° SSW
Cosmos 1092 Rocket 4.1 14:08:49 10° SSW 14:14:58 62° W 14:21:13 10° N
Cosmos 990 Rocket 4.0 14:13:34 10° SSW 14:18:49 86° WNW 14:24:05 10° NNE
